Time,TemperatureF,DewpointF,PressureIn,WindDirection,WindDirectionDegrees,WindSpeedMPH,WindSpeedGustMPH,Humidity,HourlyPrecipIn,Conditions,Clouds,dailyrainin,SoftwareType,DateUTC
2013-02-09 00:00:00,14.0,9.8,30.29,South,180,6.0,8.0,83,0.00,,,-99.99,Weather View 32 v60,2013-02-09 06:00:00,
2013-02-09 00:05:00,16.0,12.0,30.30,SSW,202,7.0,8.0,84,0.00,,,-99.99,Weather View 32 v60,2013-02-09 06:05:00,
2013-02-09 00:10:00,17.0,12.7,30.30,SW,225,5.0,11.0,83,0.00,,,-99.99,Weather View 32 v60,2013-02-09 06:10:00,
2013-02-09 00:15:00,18.0,13.4,30.29,SSW,202,5.0,12.0,82,0.00,,,-99.99,Weather View 32 v60,2013-02-09 06:15:00,
2013-02-09 00:20:00,19.0,14.4,30.29,SW,225,6.0,12.0,82,0.00,,,-99.99,Weather View 32 v60,2013-02-09 06:20:00,
2013-02-09 00:25:00,19.0,14.1,30.29,SSW,202,5.0,13.0,81,0.00,,,-99.99,Weather View 32 v60,2013-02-09 06:25:00,
2013-02-09 00:30:00,19.0,14.1,30.28,SSW,202,6.0,13.0,81,0.00,,,-99.99,Weather View 32 v60,2013-02-09 06:30:00,
2013-02-09 00:35:00,19.0,13.9,30.29,South,180,6.0,13.0,80,0.00,,,-99.99,Weather View 32 v60,2013-02-09 06:35:00,
2013-02-09 00:40:00,19.0,13.9,30.28,SSW,202,5.0,13.0,80,0.00,,,-99.99,Weather View 32 v60,2013-02-09 06:40:00,
2013-02-09 00:45:00,19.0,14.1,30.28,SW,225,6.0,13.0,81,0.00,,,-99.99,Weather View 32 v60,2013-02-09 06:45:00,
2013-02-09 00:50:00,20.0,15.1,30.28,SSW,202,8.0,14.0,81,0.00,,,-99.99,Weather View 32 v60,2013-02-09 06:50:00,
2013-02-09 00:55:00,20.0,15.1,30.28,SSW,202,4.0,14.0,81,0.00,,,-99.99,Weather View 32 v60,2013-02-09 06:55:00,
2013-02-09 01:00:00,20.0,15.1,30.28,SW,225,3.0,15.0,81,0.00,,,-99.99,Weather View 32 v60,2013-02-09 07:00:00,
2013-02-09 01:05:00,20.0,15.1,30.28,SW,225,5.0,15.0,81,0.00,,,-99.99,Weather View 32 v60,2013-02-09 07:05:00,
2013-02-09 01:10:00,20.0,15.1,30.28,SSW,202,4.0,15.0,81,0.00,,,-99.99,Weather View 32 v60,2013-02-09 07:10:00,
2013-02-09 01:15:00,20.0,15.1,30.28,SSW,202,3.0,15.0,81,0.00,,,-99.99,Weather View 32 v60,2013-02-09 07:15:00,
2013-02-09 01:20:00,20.0,15.1,30.27,SSW,202,5.0,15.0,81,0.00,,,-99.99,Weather View 32 v60,2013-02-09 07:20:00,
2013-02-09 01:25:00,20.0,15.1,30.27,South,180,5.0,15.0,81,0.00,,,-99.99,Weather View 32 v60,2013-02-09 07:25:00,
2013-02-09 01:30:00,20.0,15.1,30.27,SSW,202,8.0,15.0,81,0.00,,,-99.99,Weather View 32 v60,2013-02-09 07:30:00,
2013-02-09 01:35:00,20.0,15.1,30.27,SSW,202,7.0,15.0,81,0.00,,,-99.99,Weather View 32 v60,2013-02-09 07:35:00,
2013-02-09 01:40:00,20.0,15.4,30.27,SSW,202,4.0,15.0,82,0.00,,,-99.99,Weather View 32 v60,2013-02-09 07:40:00,
2013-02-09 01:45:00,20.0,15.4,30.27,WSW,248,9.0,15.0,82,0.00,,,-99.99,Weather View 32 v60,2013-02-09 07:45:00,
2013-02-09 01:50:00,20.0,15.4,30.26,SSE,158,5.0,15.0,82,0.00,,,-99.99,Weather View 32 v60,2013-02-09 07:50:00,
2013-02-09 01:55:00,21.0,16.4,30.26,SW,225,10.0,15.0,82,0.00,,,-99.99,Weather View 32 v60,2013-02-09 07:55:00,
2013-02-09 02:00:00,21.0,16.4,30.25,South,180,4.0,15.0,82,0.00,,,-99.99,Weather View 32 v60,2013-02-09 08:00:00,
2013-02-09 02:05:00,21.0,16.4,30.26,South,180,6.0,15.0,82,0.00,,,-99.99,Weather View 32 v60,2013-02-09 08:05:00,
2013-02-09 02:10:00,21.0,16.4,30.25,SSW,202,7.0,15.0,82,0.00,,,-99.99,Weather View 32 v60,2013-02-09 08:10:00,
2013-02-09 02:15:00,21.0,16.4,30.25,SSW,202,3.0,15.0,82,0.00,,,-99.99,Weather View 32 v60,2013-02-09 08:15:00,
2013-02-09 02:20:00,21.0,16.4,30.24,SSW,202,10.0,15.0,82,0.00,,,-99.99,Weather View 32 v60,2013-02-09 08:20:00,
2013-02-09 02:35:00,21.0,16.4,30.23,SSW,202,13.0,16.0,82,0.00,,,-99.99,Weather View 32 v60,2013-02-09 08:35:00,
2013-02-09 02:40:00,21.0,16.4,30.23,SW,225,6.0,16.0,82,0.00,,,-99.99,Weather View 32 v60,2013-02-09 08:40:00,
2013-02-09 02:45:00,21.0,16.4,30.22,SSE,158,4.0,16.0,82,0.00,,,-99.99,Weather View 32 v60,2013-02-09 08:45:00,
2013-02-09 02:50:00,21.0,16.7,30.22,SSW,202,5.0,16.0,83,0.00,,,-99.99,Weather View 32 v60,2013-02-09 08:50:00,
2013-02-09 02:55:00,21.0,16.7,30.22,SW,225,6.0,16.0,83,0.00,,,-99.99,Weather View 32 v60,2013-02-09 08:55:00,
2013-02-09 03:10:00,21.0,16.7,30.21,SSW,202,9.0,16.0,83,0.00,,,-99.99,Weather View 32 v60,2013-02-09 09:10:00,
2013-02-09 03:15:00,21.0,16.7,30.21,South,180,10.0,16.0,83,0.00,,,-99.99,Weather View 32 v60,2013-02-09 09:15:00,
2013-02-09 03:25:00,21.0,16.4,30.24,SSW,202,4.0,15.0,82,0.00,,,-99.99,Weather View 32 v60,2013-02-09 09:25:00,
2013-02-09 03:30:00,21.0,16.4,30.24,SSW,202,12.0,16.0,82,0.00,,,-99.99,Weather View 32 v60,2013-02-09 09:30:00,
2013-02-09 03:35:00,21.0,16.7,30.22,SSW,202,7.0,16.0,83,0.00,,,-99.99,Weather View 32 v60,2013-02-09 09:35:00,
2013-02-09 03:36:00,21.0,16.4,30.23,SSW,202,13.0,16.0,82,0.00,,,-99.99,Weather View 32 v60,2013-02-09 09:36:00,
2013-02-09 03:40:00,21.0,16.7,30.21,SSW,202,8.0,16.0,83,0.00,,,-99.99,Weather View 32 v60,2013-02-09 09:40:00,
2013-02-09 03:55:00,21.0,16.7,30.21,SSW,202,6.0,14.0,83,0.00,,,-99.99,Weather View 32 v60,2013-02-09 09:55:00,
2013-02-09 04:00:00,21.0,16.7,30.22,SW,225,8.0,16.0,83,0.00,,,-99.99,Weather View 32 v60,2013-02-09 10:00:00,
2013-02-09 04:05:00,21.0,16.7,30.21,SSW,202,3.0,16.0,83,0.00,,,-99.99,Weather View 32 v60,2013-02-09 10:05:00,
2013-02-09 04:15:00,22.0,17.9,30.21,SSW,202,3.0,16.0,84,0.00,,,-99.99,Weather View 32 v60,2013-02-09 10:15:00,
2013-02-09 04:20:00,21.0,16.7,30.21,South,180,5.0,16.0,83,0.00,,,-99.99,Weather View 32 v60,2013-02-09 10:20:00,
2013-02-09 04:25:00,21.0,16.7,30.21,SSW,202,5.0,16.0,83,0.00,,,-99.99,Weather View 32 v60,2013-02-09 10:25:00,
2013-02-09 04:36:00,21.0,16.7,30.22,SSW,202,7.0,16.0,83,0.00,,,-99.99,Weather View 32 v60,2013-02-09 10:36:00,
2013-02-09 04:45:00,21.0,16.7,30.21,South,180,8.0,16.0,83,0.00,,,-99.99,Weather View 32 v60,2013-02-09 10:45:00,
2013-02-09 04:50:00,21.0,16.7,30.21,SW,225,2.0,14.0,83,0.00,,,-99.99,Weather View 32 v60,2013-02-09 10:50:00,
2013-02-09 05:00:00,21.0,16.9,30.21,WSW,248,7.0,16.0,84,0.00,,,-99.99,Weather View 32 v60,2013-02-09 11:00:00,
2013-02-09 05:10:00,22.0,17.9,30.21,South,180,3.0,16.0,84,0.00,,,-99.99,Weather View 32 v60,2013-02-09 11:10:00,
2013-02-09 05:20:00,23.0,18.9,30.20,SW,225,5.0,14.0,84,0.00,,,-99.99,Weather View 32 v60,2013-02-09 11:20:00,
2013-02-09 05:25:00,23.0,18.9,30.19,SSW,202,6.0,14.0,84,0.00,,,-99.99,Weather View 32 v60,2013-02-09 11:25:00,
2013-02-09 05:30:00,22.0,17.9,30.21,SSW,202,7.0,16.0,84,0.00,,,-99.99,Weather View 32 v60,2013-02-09 11:30:00,
2013-02-09 05:35:00,22.0,17.9,30.21,SSW,202,8.0,16.0,84,0.00,,,-99.99,Weather View 32 v60,2013-02-09 11:35:00,
2013-02-09 05:40:00,22.0,17.9,30.21,SW,225,3.0,16.0,84,0.00,,,-99.99,Weather View 32 v60,2013-02-09 11:40:00,
2013-02-09 05:50:00,22.0,17.9,30.20,SSW,202,5.0,16.0,84,0.00,,,-99.99,Weather View 32 v60,2013-02-09 11:50:00,
2013-02-09 06:00:00,22.0,17.9,30.20,SW,225,4.0,13.0,84,0.00,,,-99.99,Weather View 32 v60,2013-02-09 12:00:00,
2013-02-09 06:05:00,22.0,17.9,30.20,SSW,202,6.0,14.0,84,0.00,,,-99.99,Weather View 32 v60,2013-02-09 12:05:00,
2013-02-09 06:10:00,23.0,18.9,30.20,South,180,4.0,14.0,84,0.00,,,-99.99,Weather View 32 v60,2013-02-09 12:10:00,
2013-02-09 06:15:00,23.0,19.2,30.16,South,180,5.0,14.0,85,0.00,,,-99.99,Weather View 32 v60,2013-02-09 12:15:00,
2013-02-09 06:25:00,23.0,19.2,30.16,WSW,248,5.0,16.0,85,0.00,,,-99.99,Weather View 32 v60,2013-02-09 12:25:00,
2013-02-09 06:45:00,23.0,18.9,30.18,SSW,202,6.0,14.0,84,0.00,,,-99.99,Weather View 32 v60,2013-02-09 12:45:00,
2013-02-09 06:55:00,23.0,19.2,30.17,SW,225,6.0,14.0,85,0.00,,,-99.99,Weather View 32 v60,2013-02-09 12:55:00,
2013-02-09 07:00:00,23.0,19.2,30.16,SSE,158,3.0,14.0,85,0.00,,,-99.99,Weather View 32 v60,2013-02-09 13:00:00,
2013-02-09 07:05:00,23.0,19.2,30.17,SSW,202,8.0,14.0,85,0.00,,,-99.99,Weather View 32 v60,2013-02-09 13:05:00,
2013-02-09 07:20:00,23.0,19.2,30.17,South,180,9.0,14.0,85,0.00,,,-99.99,Weather View 32 v60,2013-02-09 13:20:00,
2013-02-09 07:29:00,23.0,19.2,30.16,SW,225,7.0,16.0,85,0.00,,,-99.99,Weather View 32 v60,2013-02-09 13:29:00,
2013-02-09 07:35:00,24.0,20.1,30.16,SSW,202,8.0,16.0,85,0.00,,,-99.99,Weather View 32 v60,2013-02-09 13:35:00,
2013-02-09 07:40:00,24.0,20.1,30.16,SSW,202,6.0,16.0,85,0.00,,,-99.99,Weather View 32 v60,2013-02-09 13:40:00,
2013-02-09 07:45:00,24.0,20.1,30.16,SW,225,4.0,16.0,85,0.00,,,-99.99,Weather View 32 v60,2013-02-09 13:45:00,
2013-02-09 07:50:00,24.0,20.1,30.16,SSE,158,6.0,16.0,85,0.00,,,-99.99,Weather View 32 v60,2013-02-09 13:50:00,
2013-02-09 07:55:00,24.0,20.1,30.17,SSW,202,7.0,16.0,85,0.00,,,-99.99,Weather View 32 v60,2013-02-09 13:55:00,
2013-02-09 08:00:00,24.0,20.1,30.17,SSW,202,8.0,16.0,85,0.00,,,-99.99,Weather View 32 v60,2013-02-09 14:00:00,
2013-02-09 08:05:00,24.0,20.1,30.17,SSW,202,5.0,16.0,85,0.00,,,-99.99,Weather View 32 v60,2013-02-09 14:05:00,
2013-02-09 08:15:00,24.0,19.9,30.16,South,180,3.0,16.0,84,0.00,,,-99.99,Weather View 32 v60,2013-02-09 14:15:00,
2013-02-09 08:20:00,24.0,19.9,30.16,SSW,202,6.0,16.0,84,0.00,,,-99.99,Weather View 32 v60,2013-02-09 14:20:00,
2013-02-09 08:25:00,25.0,20.9,30.16,South,180,5.0,16.0,84,0.00,,,-99.99,Weather View 32 v60,2013-02-09 14:25:00,
2013-02-09 08:30:00,25.0,20.9,30.16,WSW,248,5.0,16.0,84,0.00,,,-99.99,Weather View 32 v60,2013-02-09 14:30:00,
2013-02-09 08:35:00,25.0,20.9,30.16,SSW,202,4.0,16.0,84,0.00,,,-99.99,Weather View 32 v60,2013-02-09 14:35:00,
2013-02-09 08:40:00,25.0,20.9,30.16,SW,225,6.0,16.0,84,0.00,,,-99.99,Weather View 32 v60,2013-02-09 14:40:00,
2013-02-09 08:45:00,25.0,20.9,30.16,WSW,248,8.0,16.0,84,0.00,,,-99.99,Weather View 32 v60,2013-02-09 14:45:00,
2013-02-09 08:50:00,25.0,20.9,30.16,SW,225,5.0,16.0,84,0.00,,,-99.99,Weather View 32 v60,2013-02-09 14:50:00,
2013-02-09 08:55:00,25.0,20.9,30.17,SW,225,6.0,14.0,84,0.00,,,-99.99,Weather View 32 v60,2013-02-09 14:55:00,
2013-02-09 09:00:00,25.0,20.9,30.16,WSW,248,6.0,14.0,84,0.00,,,-99.99,Weather View 32 v60,2013-02-09 15:00:00,
2013-02-09 09:05:00,25.0,20.9,30.17,SSW,202,8.0,14.0,84,0.00,,,-99.99,Weather View 32 v60,2013-02-09 15:05:00,
2013-02-09 09:10:00,25.0,20.6,30.16,SSW,202,5.0,14.0,83,0.00,,,-99.99,Weather View 32 v60,2013-02-09 15:10:00,
2013-02-09 09:15:00,25.0,20.6,30.17,SSW,202,5.0,13.0,83,0.00,,,-99.99,Weather View 32 v60,2013-02-09 15:15:00,
2013-02-09 09:20:00,26.0,21.5,30.17,SSW,202,3.0,13.0,83,0.00,,,-99.99,Weather View 32 v60,2013-02-09 15:20:00,
2013-02-09 09:25:00,26.0,21.5,30.17,SW,225,4.0,13.0,83,0.00,,,-99.99,Weather View 32 v60,2013-02-09 15:25:00,
2013-02-09 09:30:00,26.0,21.5,30.17,South,180,6.0,13.0,83,0.00,,,-99.99,Weather View 32 v60,2013-02-09 15:30:00,
2013-02-09 09:35:00,26.0,21.3,30.17,SW,225,6.0,13.0,82,0.00,,,-99.99,Weather View 32 v60,2013-02-09 15:35:00,
2013-02-09 09:40:00,26.0,21.3,30.17,WSW,248,4.0,13.0,82,0.00,,,-99.99,Weather View 32 v60,2013-02-09 15:40:00,
2013-02-09 09:45:00,26.0,21.3,30.16,SW,225,9.0,13.0,82,0.00,,,-99.99,Weather View 32 v60,2013-02-09 15:45:00,
2013-02-09 09:50:00,26.0,21.3,30.16,SSW,202,3.0,13.0,82,0.00,,,-99.99,Weather View 32 v60,2013-02-09 15:50:00,
2013-02-09 10:00:00,26.0,21.3,30.16,South,180,5.0,13.0,82,0.00,,,-99.99,Weather View 32 v60,2013-02-09 16:00:00,
2013-02-09 10:05:00,26.0,21.3,30.16,WSW,248,3.0,13.0,82,0.00,,,-99.99,Weather View 32 v60,2013-02-09 16:05:00,
2013-02-09 10:10:00,26.0,21.3,30.16,SW,225,6.0,13.0,82,0.00,,,-99.99,Weather View 32 v60,2013-02-09 16:10:00,
2013-02-09 10:15:00,26.0,21.0,30.16,WSW,248,6.0,13.0,81,0.00,,,-99.99,Weather View 32 v60,2013-02-09 16:15:00,
2013-02-09 10:20:00,26.0,21.0,30.16,SSW,202,4.0,13.0,81,0.00,,,-99.99,Weather View 32 v60,2013-02-09 16:20:00,
2013-02-09 10:25:00,27.0,21.9,30.16,SSW,202,6.0,13.0,81,0.00,,,-99.99,Weather View 32 v60,2013-02-09 16:25:00,
2013-02-09 10:30:00,27.0,21.9,30.16,SSW,202,5.0,13.0,81,0.00,,,-99.99,Weather View 32 v60,2013-02-09 16:30:00,
2013-02-09 10:35:00,27.0,21.9,30.16,WSW,248,6.0,13.0,81,0.00,,,-99.99,Weather View 32 v60,2013-02-09 16:35:00,
2013-02-09 10:40:00,27.0,21.9,30.16,WSW,248,3.0,13.0,81,0.00,,,-99.99,Weather View 32 v60,2013-02-09 16:40:00,
2013-02-09 10:45:00,27.0,21.9,30.16,West,270,3.0,12.0,81,0.00,,,-99.99,Weather View 32 v60,2013-02-09 16:45:00,
2013-02-09 10:50:00,27.0,21.7,30.16,West,270,6.0,12.0,80,0.00,,,-99.99,Weather View 32 v60,2013-02-09 16:50:00,
2013-02-09 10:55:00,27.0,21.7,30.16,SW,225,5.0,12.0,80,0.00,,,-99.99,Weather View 32 v60,2013-02-09 16:55:00,
2013-02-09 11:05:00,27.0,21.7,30.16,WNW,292,6.0,12.0,80,0.00,,,-99.99,Weather View 32 v60,2013-02-09 17:05:00,
2013-02-09 11:15:00,27.0,21.4,30.16,SSW,202,4.0,13.0,79,0.00,,,-99.99,Weather View 32 v60,2013-02-09 17:15:00,
2013-02-09 11:20:00,27.0,21.4,30.15,WSW,248,3.0,13.0,79,0.00,,,-99.99,Weather View 32 v60,2013-02-09 17:20:00,
2013-02-09 11:25:00,27.0,21.4,30.15,SW,225,6.0,13.0,79,0.00,,,-99.99,Weather View 32 v60,2013-02-09 17:25:00,
2013-02-09 11:30:00,27.0,21.4,30.15,SW,225,4.0,13.0,79,0.00,,,-99.99,Weather View 32 v60,2013-02-09 17:30:00,
2013-02-09 11:35:00,27.0,21.4,30.15,West,270,8.0,13.0,79,0.00,,,-99.99,Weather View 32 v60,2013-02-09 17:35:00,
2013-02-09 11:40:00,28.0,22.3,30.15,NW,315,3.0,13.0,79,0.00,,,-99.99,Weather View 32 v60,2013-02-09 17:40:00,
2013-02-09 11:50:00,28.0,22.0,30.15,WNW,292,6.0,15.0,78,0.00,,,-99.99,Weather View 32 v60,2013-02-09 17:50:00,
2013-02-09 12:00:00,28.0,22.0,30.15,West,270,4.0,16.0,78,0.00,,,-99.99,Weather View 32 v60,2013-02-09 18:00:00,
2013-02-09 12:05:00,28.0,22.0,30.14,WNW,292,4.0,16.0,78,0.00,,,-99.99,Weather View 32 v60,2013-02-09 18:05:00,
2013-02-09 12:10:00,28.0,22.0,30.14,West,270,4.0,16.0,78,0.00,,,-99.99,Weather View 32 v60,2013-02-09 18:10:00,
2013-02-09 12:15:00,28.0,22.0,30.13,South,180,3.0,16.0,78,0.00,,,-99.99,Weather View 32 v60,2013-02-09 18:15:00,
2013-02-09 12:20:00,28.0,22.0,30.13,SW,225,7.0,16.0,78,0.00,,,-99.99,Weather View 32 v60,2013-02-09 18:20:00,
2013-02-09 12:25:00,28.0,22.0,30.13,SW,225,10.0,16.0,78,0.00,,,-99.99,Weather View 32 v60,2013-02-09 18:25:00,
2013-02-09 12:35:00,28.0,22.0,30.13,West,270,5.0,16.0,78,0.00,,,-99.99,Weather View 32 v60,2013-02-09 18:35:00,
2013-02-09 12:40:00,28.0,22.0,30.12,NNW,338,5.0,16.0,78,0.00,,,-99.99,Weather View 32 v60,2013-02-09 18:40:00,
2013-02-09 12:45:00,28.0,22.0,30.12,SSW,202,6.0,16.0,78,0.00,,,-99.99,Weather View 32 v60,2013-02-09 18:45:00,
2013-02-09 12:50:00,28.0,22.0,30.12,WSW,248,9.0,16.0,78,0.00,,,-99.99,Weather View 32 v60,2013-02-09 18:50:00,
2013-02-09 12:55:00,28.0,22.0,30.12,West,270,3.0,16.0,78,0.00,,,-99.99,Weather View 32 v60,2013-02-09 18:55:00,
2013-02-09 13:00:00,28.0,22.0,30.11,SW,225,5.0,16.0,78,0.00,,,-99.99,Weather View 32 v60,2013-02-09 19:00:00,
2013-02-09 13:05:00,28.0,22.0,30.11,SW,225,3.0,16.0,78,0.00,,,-99.99,Weather View 32 v60,2013-02-09 19:05:00,
2013-02-09 13:10:00,28.0,22.0,30.11,West,270,5.0,16.0,78,0.00,,,-99.99,Weather View 32 v60,2013-02-09 19:10:00,
2013-02-09 13:20:00,29.0,23.0,30.11,West,270,9.0,16.0,78,0.00,,,-99.99,Weather View 32 v60,2013-02-09 19:20:00,
2013-02-09 13:25:00,29.0,23.0,30.10,West,270,6.0,13.0,78,0.00,,,-99.99,Weather View 32 v60,2013-02-09 19:25:00,
2013-02-09 13:30:00,29.0,23.0,30.10,WSW,248,4.0,13.0,78,0.00,,,-99.99,Weather View 32 v60,2013-02-09 19:30:00,
2013-02-09 13:35:00,29.0,23.0,30.10,SW,225,6.0,13.0,78,0.00,,,-99.99,Weather View 32 v60,2013-02-09 19:35:00,
2013-02-09 13:40:00,29.0,23.0,30.10,WSW,248,5.0,13.0,78,0.00,,,-99.99,Weather View 32 v60,2013-02-09 19:40:00,
2013-02-09 13:45:00,29.0,23.0,30.10,WSW,248,7.0,13.0,78,0.00,,,-99.99,Weather View 32 v60,2013-02-09 19:45:00,
2013-02-09 13:50:00,29.0,23.0,30.10,SW,225,3.0,13.0,78,0.00,,,-99.99,Weather View 32 v60,2013-02-09 19:50:00,
2013-02-09 13:55:00,29.0,23.0,30.09,SW,225,6.0,13.0,78,0.00,,,-99.99,Weather View 32 v60,2013-02-09 19:55:00,
2013-02-09 14:05:00,29.0,23.0,30.09,WSW,248,10.0,12.0,78,0.00,,,-99.99,Weather View 32 v60,2013-02-09 20:05:00,
2013-02-09 14:15:00,29.0,23.3,30.08,SSW,202,5.0,11.0,79,0.00,,,-99.99,Weather View 32 v60,2013-02-09 20:15:00,
2013-02-09 14:20:00,29.0,23.3,30.08,SSW,202,2.0,11.0,79,0.00,,,-99.99,Weather View 32 v60,2013-02-09 20:20:00,
2013-02-09 14:25:00,29.0,23.3,30.08,SW,225,4.0,11.0,79,0.00,,,-99.99,Weather View 32 v60,2013-02-09 20:25:00,
2013-02-09 14:30:00,29.0,23.3,30.08,SW,225,5.0,11.0,79,0.00,,,-99.99,Weather View 32 v60,2013-02-09 20:30:00,
2013-02-09 14:35:00,29.0,23.3,30.08,SSW,202,3.0,11.0,79,0.00,,,-99.99,Weather View 32 v60,2013-02-09 20:35:00,
2013-02-09 14:42:00,29.0,23.3,30.08,WSW,248,2.0,11.0,79,0.00,,,-99.99,Weather View 32 v60,2013-02-09 20:42:00,
2013-02-09 14:50:00,29.0,23.3,30.08,SSW,202,2.0,11.0,79,0.00,,,-99.99,Weather View 32 v60,2013-02-09 20:50:00,
2013-02-09 15:00:00,29.0,23.3,30.07,SSW,202,4.0,11.0,79,0.00,,,-99.99,Weather View 32 v60,2013-02-09 21:00:00,
2013-02-09 15:05:00,29.0,23.3,30.07,SW,225,4.0,11.0,79,0.00,,,-99.99,Weather View 32 v60,2013-02-09 21:05:00,
2013-02-09 15:10:00,29.0,23.3,30.07,SW,225,3.0,11.0,79,0.00,,,-99.99,Weather View 32 v60,2013-02-09 21:10:00,
2013-02-09 15:20:00,29.0,23.3,30.07,SW,225,6.0,11.0,79,0.00,,,-99.99,Weather View 32 v60,2013-02-09 21:20:00,
2013-02-09 15:25:00,29.0,23.3,30.07,WSW,248,7.0,11.0,79,0.00,,,-99.99,Weather View 32 v60,2013-02-09 21:25:00,
2013-02-09 15:30:00,29.0,23.6,30.07,SSW,202,3.0,10.0,80,0.00,,,-99.99,Weather View 32 v60,2013-02-09 21:30:00,
2013-02-09 15:35:00,29.0,23.6,30.07,SSW,202,3.0,10.0,80,0.00,,,-99.99,Weather View 32 v60,2013-02-09 21:35:00,
2013-02-09 15:42:00,29.0,23.6,30.07,South,180,3.0,10.0,80,0.00,,,-99.99,Weather View 32 v60,2013-02-09 21:42:00,
2013-02-09 15:50:00,29.0,23.6,30.06,SW,225,1.0,10.0,80,0.00,,,-99.99,Weather View 32 v60,2013-02-09 21:50:00,
2013-02-09 15:55:00,29.0,23.6,30.06,SW,225,3.0,10.0,80,0.00,,,-99.99,Weather View 32 v60,2013-02-09 21:55:00,
2013-02-09 16:05:00,29.0,23.6,30.06,SW,225,6.0,10.0,80,0.00,,,-99.99,Weather View 32 v60,2013-02-09 22:05:00,
2013-02-09 16:15:00,29.0,23.6,30.06,South,180,5.0,10.0,80,0.00,,,-99.99,Weather View 32 v60,2013-02-09 22:15:00,
2013-02-09 16:20:00,29.0,23.9,30.06,WSW,248,4.0,10.0,81,0.00,,,-99.99,Weather View 32 v60,2013-02-09 22:20:00,
2013-02-09 16:25:00,29.0,23.9,30.06,SW,225,3.0,10.0,81,0.00,,,-99.99,Weather View 32 v60,2013-02-09 22:25:00,
2013-02-09 16:30:00,29.0,23.9,30.05,South,180,6.0,10.0,81,0.00,,,-99.99,Weather View 32 v60,2013-02-09 22:30:00,
2013-02-09 16:35:00,29.0,23.9,30.05,SSW,202,3.0,10.0,81,0.00,,,-99.99,Weather View 32 v60,2013-02-09 22:35:00,
2013-02-09 16:43:00,29.0,23.9,30.05,West,270,3.0,10.0,81,0.00,,,-99.99,Weather View 32 v60,2013-02-09 22:43:00,
2013-02-09 16:50:00,29.0,23.9,30.05,SW,225,4.0,8.0,81,0.00,,,-99.99,Weather View 32 v60,2013-02-09 22:50:00,
2013-02-09 17:00:00,28.0,23.2,30.05,South,180,5.0,10.0,82,0.00,,,-99.99,Weather View 32 v60,2013-02-09 23:00:00,
2013-02-09 17:05:00,28.0,23.5,30.05,SSW,202,6.0,10.0,83,0.00,,,-99.99,Weather View 32 v60,2013-02-09 23:05:00,
2013-02-09 17:10:00,28.0,23.5,30.05,SSW,202,8.0,10.0,83,0.00,,,-99.99,Weather View 32 v60,2013-02-09 23:10:00,
2013-02-09 17:15:00,28.0,23.8,30.05,SSW,202,5.0,10.0,84,0.00,,,-99.99,Weather View 32 v60,2013-02-09 23:15:00,
2013-02-09 17:20:00,28.0,23.8,30.05,SSW,202,4.0,10.0,84,0.00,,,-99.99,Weather View 32 v60,2013-02-09 23:20:00,
2013-02-09 17:30:00,28.0,24.1,30.05,SSE,158,3.0,10.0,85,0.00,,,-99.99,Weather View 32 v60,2013-02-09 23:30:00,
2013-02-09 17:35:00,28.0,24.1,30.05,SSW,202,3.0,10.0,85,0.00,,,-99.99,Weather View 32 v60,2013-02-09 23:35:00,
2013-02-09 17:40:00,28.0,24.1,30.05,SSE,158,3.0,10.0,85,0.00,,,-99.99,Weather View 32 v60,2013-02-09 23:40:00,
2013-02-09 17:45:00,28.0,24.4,30.05,SSW,202,10.0,10.0,86,0.00,,,-99.99,Weather View 32 v60,2013-02-09 23:45:00,
2013-02-09 17:50:00,28.0,24.4,30.05,SSE,158,2.0,10.0,86,0.00,,,-99.99,Weather View 32 v60,2013-02-09 23:50:00,
2013-02-09 18:00:00,28.0,24.4,30.05,SW,225,4.0,10.0,86,0.00,,,-99.99,Weather View 32 v60,2013-02-10 00:00:00,
2013-02-09 18:05:00,28.0,24.4,30.05,South,180,3.0,10.0,86,0.00,,,-99.99,Weather View 32 v60,2013-02-10 00:05:00,
2013-02-09 18:15:00,28.0,24.6,30.05,SW,225,3.0,10.0,87,0.00,,,-99.99,Weather View 32 v60,2013-02-10 00:15:00,
2013-02-09 18:20:00,28.0,24.6,30.05,SSW,202,3.0,10.0,87,0.00,,,-99.99,Weather View 32 v60,2013-02-10 00:20:00,
2013-02-09 18:25:00,28.0,24.6,30.05,SW,225,1.0,10.0,87,0.00,,,-99.99,Weather View 32 v60,2013-02-10 00:25:00,
2013-02-09 18:30:00,28.0,24.6,30.05,SW,225,2.0,10.0,87,0.00,,,-99.99,Weather View 32 v60,2013-02-10 00:30:00,
2013-02-09 18:35:00,28.0,24.6,30.05,SW,225,3.0,10.0,87,0.00,,,-99.99,Weather View 32 v60,2013-02-10 00:35:00,
2013-02-09 18:40:00,28.0,24.6,30.05,SSE,158,3.0,10.0,87,0.00,,,-99.99,Weather View 32 v60,2013-02-10 00:40:00,
2013-02-09 18:50:00,28.0,24.6,30.05,South,180,5.0,7.0,87,0.00,,,-99.99,Weather View 32 v60,2013-02-10 00:50:00,
2013-02-09 19:00:00,28.0,24.9,30.05,South,180,3.0,7.0,88,0.00,,,-99.99,Weather View 32 v60,2013-02-10 01:00:00,
2013-02-09 19:05:00,28.0,24.9,30.05,SE,135,3.0,7.0,88,0.00,,,-99.99,Weather View 32 v60,2013-02-10 01:05:00,
2013-02-09 19:15:00,28.0,24.9,30.05,SSW,202,1.0,7.0,88,0.00,,,-99.99,Weather View 32 v60,2013-02-10 01:15:00,
2013-02-09 19:20:00,28.0,24.9,30.05,South,180,3.0,8.0,88,0.00,,,-99.99,Weather View 32 v60,2013-02-10 01:20:00,
2013-02-09 19:30:00,28.0,24.9,30.05,South,180,1.0,9.0,88,0.00,,,-99.99,Weather View 32 v60,2013-02-10 01:30:00,
2013-02-09 19:35:00,28.0,24.9,30.05,SSW,202,1.0,9.0,88,0.00,,,-99.99,Weather View 32 v60,2013-02-10 01:35:00,
2013-02-09 19:45:00,28.0,24.9,30.05,South,180,5.0,9.0,88,0.00,,,-99.99,Weather View 32 v60,2013-02-10 01:45:00,
2013-02-09 19:50:00,28.0,24.9,30.05,SW,225,3.0,10.0,88,0.00,,,-99.99,Weather View 32 v60,2013-02-10 01:50:00,
2013-02-09 20:00:00,28.0,25.2,30.05,SSW,202,1.0,10.0,89,0.00,,,-99.99,Weather View 32 v60,2013-02-10 02:00:00,
2013-02-09 20:05:00,28.0,25.2,30.05,SSW,202,1.0,10.0,89,0.00,,,-99.99,Weather View 32 v60,2013-02-10 02:05:00,
2013-02-09 20:14:00,28.0,25.2,30.05,South,180,2.0,10.0,89,0.00,,,-99.99,Weather View 32 v60,2013-02-10 02:14:00,
2013-02-09 20:20:00,28.0,25.2,30.05,SSW,202,2.0,10.0,89,0.00,,,-99.99,Weather View 32 v60,2013-02-10 02:20:00,
2013-02-09 20:30:00,28.0,25.2,30.05,SW,225,1.0,10.0,89,0.00,,,-99.99,Weather View 32 v60,2013-02-10 02:30:00,
2013-02-09 20:35:00,28.0,25.2,30.05,SSE,158,3.0,10.0,89,0.00,,,-99.99,Weather View 32 v60,2013-02-10 02:35:00,
2013-02-09 20:40:00,28.0,25.2,30.05,SSW,202,3.0,10.0,89,0.00,,,-99.99,Weather View 32 v60,2013-02-10 02:40:00,
2013-02-09 20:45:00,28.0,25.2,30.05,SSW,202,3.0,10.0,89,0.00,,,-99.99,Weather View 32 v60,2013-02-10 02:45:00,
2013-02-09 20:55:00,28.0,25.2,30.05,SSW,202,2.0,8.0,89,0.00,,,-99.99,Weather View 32 v60,2013-02-10 02:55:00,
2013-02-09 21:00:00,28.0,25.2,30.05,SSW,202,5.0,8.0,89,0.00,,,-99.99,Weather View 32 v60,2013-02-10 03:00:00,
2013-02-09 21:05:00,28.0,25.2,30.05,South,180,5.0,8.0,89,0.00,,,-99.99,Weather View 32 v60,2013-02-10 03:05:00,
2013-02-09 21:15:00,28.0,25.2,30.04,South,180,6.0,9.0,89,0.00,,,-99.99,Weather View 32 v60,2013-02-10 03:15:00,
2013-02-09 21:20:00,28.0,25.2,30.04,SSW,202,1.0,9.0,89,0.00,,,-99.99,Weather View 32 v60,2013-02-10 03:20:00,
2013-02-09 21:30:00,28.0,25.2,30.04,SE,135,4.0,9.0,89,0.00,,,-99.99,Weather View 32 v60,2013-02-10 03:30:00,
2013-02-09 21:35:00,28.0,25.2,30.04,SSE,158,3.0,9.0,89,0.00,,,-99.99,Weather View 32 v60,2013-02-10 03:35:00,
2013-02-09 21:45:00,28.0,25.2,30.04,SSE,158,3.0,9.0,89,0.00,,,-99.99,Weather View 32 v60,2013-02-10 03:45:00,
2013-02-09 21:50:00,27.0,24.2,30.04,SSW,202,3.0,9.0,89,0.00,,,-99.99,Weather View 32 v60,2013-02-10 03:50:00,
2013-02-09 22:00:00,27.0,24.2,30.05,South,180,3.0,10.0,89,0.00,,,-99.99,Weather View 32 v60,2013-02-10 04:00:00,
2013-02-09 22:05:00,27.0,24.2,30.04,SW,225,3.0,7.0,89,0.00,,,-99.99,Weather View 32 v60,2013-02-10 04:05:00,
2013-02-09 22:10:00,27.0,24.2,30.05,SSW,202,1.0,10.0,89,0.00,,,-99.99,Weather View 32 v60,2013-02-10 04:10:00,
2013-02-09 22:15:00,27.0,24.2,30.05,SSE,158,2.0,10.0,89,0.00,,,-99.99,Weather View 32 v60,2013-02-10 04:15:00,
2013-02-09 22:20:00,27.0,24.2,30.05,SW,225,1.0,10.0,89,0.00,,,-99.99,Weather View 32 v60,2013-02-10 04:20:00,
2013-02-09 22:25:00,27.0,24.2,30.05,WSW,248,2.0,10.0,89,0.00,,,-99.99,Weather View 32 v60,2013-02-10 04:25:00,
2013-02-09 22:30:00,27.0,24.2,30.03,SSE,158,1.0,7.0,89,0.00,,,-99.99,Weather View 32 v60,2013-02-10 04:30:00,
2013-02-09 22:35:00,27.0,24.2,30.04,SSW,202,2.0,10.0,89,0.00,,,-99.99,Weather View 32 v60,2013-02-10 04:35:00,
2013-02-09 22:40:00,27.0,24.2,30.03,South,180,3.0,7.0,89,0.00,,,-99.99,Weather View 32 v60,2013-02-10 04:40:00,
2013-02-09 22:45:00,27.0,24.2,30.04,SSW,202,2.0,10.0,89,0.00,,,-99.99,Weather View 32 v60,2013-02-10 04:45:00,
2013-02-09 22:50:00,27.0,24.2,30.04,SSE,158,2.0,10.0,89,0.00,,,-99.99,Weather View 32 v60,2013-02-10 04:50:00,
2013-02-09 22:55:00,27.0,24.2,30.03,SSW,202,2.0,7.0,89,0.00,,,-99.99,Weather View 32 v60,2013-02-10 04:55:00,
2013-02-09 23:00:00,27.0,24.2,30.03,SSW,202,5.0,8.0,89,0.00,,,-99.99,Weather View 32 v60,2013-02-10 05:00:00,
2013-02-09 23:05:00,27.0,24.2,30.03,SSE,158,3.0,6.0,89,0.00,,,-99.99,Weather View 32 v60,2013-02-10 05:05:00,
2013-02-09 23:10:00,27.0,24.2,30.03,South,180,3.0,6.0,89,0.00,,,-99.99,Weather View 32 v60,2013-02-10 05:10:00,
2013-02-09 23:15:00,27.0,24.2,30.03,SE,135,3.0,6.0,89,0.00,,,-99.99,Weather View 32 v60,2013-02-10 05:15:00,
2013-02-09 23:20:00,27.0,24.2,30.03,SSE,158,3.0,6.0,89,0.00,,,-99.99,Weather View 32 v60,2013-02-10 05:20:00,
2013-02-09 23:25:00,27.0,24.5,30.03,South,180,3.0,6.0,90,0.00,,,-99.99,Weather View 32 v60,2013-02-10 05:25:00,
2013-02-09 23:30:00,27.0,24.5,30.02,SSE,158,1.0,6.0,90,0.00,,,-99.99,Weather View 32 v60,2013-02-10 05:30:00,
2013-02-09 23:35:00,27.0,24.5,30.02,SSE,158,3.0,6.0,90,0.00,,,-99.99,Weather View 32 v60,2013-02-10 05:35:00,
2013-02-09 23:40:00,27.0,24.5,30.02,SSE,158,4.0,6.0,90,0.00,,,-99.99,Weather View 32 v60,2013-02-10 05:40:00,
2013-02-09 23:45:00,27.0,24.5,30.02,SSW,202,1.0,6.0,90,0.00,,,-99.99,Weather View 32 v60,2013-02-10 05:45:00,
2013-02-09 23:50:00,27.0,24.5,30.02,SE,135,2.0,6.0,90,0.00,,,-99.99,Weather View 32 v60,2013-02-10 05:50:00,
2013-02-09 23:55:00,27.0,24.5,30.02,South,180,1.0,6.0,90,0.00,,,-99.99,Weather View 32 v60,2013-02-10 05:55:00,